| time (UTC) | temp F | wind direction | speed MPH | gust MPH | rain 1hr in | rain 24hr in | rain mn in | humidity % | barometer mb |
| 20260904130038 | 43 | 88 | 0.0 | 0.0 | 0.02 | 0.24 | 0.23 | 97 | 1011.1 |
| 20260904124536 | 44 | 88 | 0.0 | 0.0 | 0.02 | 0.24 | 0.23 | 97 | 1011.0 |
| 20260904123036 | 44 | 88 | 0.0 | 0.0 | 0.02 | 0.23 | 0.22 | 97 | 1010.9 |
| 20260904121534 | 45 | 88 | 0.0 | 0.0 | 0.03 | 0.23 | 0.22 | 97 | 1010.8 |
| 20260904120033 | 45 | 88 | 0.0 | 0.0 | 0.02 | 0.22 | 0.21 | 97 | 1010.6 |
| 20260904114532 | 45 | 88 | 0.0 | 0.0 | 0.03 | 0.22 | 0.21 | 97 | 1010.5 |
| 20260904113030 | 46 | 88 | 0.0 | 0.0 | 0.03 | 0.21 | 0.20 | 97 | 1010.2 |
| 20260904111527 | 46 | 88 | 0.0 | 0.0 | 0.03 | 0.20 | 0.19 | 97 | 1010.1 |
| 20260904110025 | 45 | 88 | 0.0 | 0.0 | 0.04 | 0.20 | 0.19 | 97 | 1009.9 |
| 20260904104523 | 45 | 88 | 0.0 | 2.0 | 0.04 | 0.19 | 0.18 | 97 | 1009.8 |
| 20260904103025 | 45 | 88 | 0.0 | 0.0 | 0.05 | 0.18 | 0.17 | 97 | 1009.7 |
| 20260904101520 | 44 | 88 | 0.0 | 0.0 | 0.06 | 0.17 | 0.16 | 97 | 1009.8 |
| 20260904100020 | 44 | 88 | 0.0 | 2.0 | 0.07 | 0.16 | 0.15 | 97 | 1009.6 |
| 20260904094522 | 44 | 88 | 0.0 | 0.0 | 0.09 | 0.15 | 0.14 | 97 | 1009.6 |
| 20260904093017 | 43 | 88 | 0.0 | 0.0 | 0.11 | 0.13 | 0.12 | 96 | 1009.3 |
| 20260904091530 | 43 | 88 | 0.0 | 0.0 | 0.10 | 0.11 | 0.10 | 96 | 1009.4 |
| 20260904090016 | 43 | 88 | 0.0 | 0.0 | 0.08 | 0.09 | 0.08 | 96 | 1009.4 |
| 20260904084517 | 43 | 88 | 0.0 | 1.0 | 0.05 | 0.06 | 0.05 | 95 | 1009.4 |
| 20260904083025 | 44 | 82 | 0.0 | 0.0 | 0.01 | 0.02 | 0.01 | 95 | 1009.6 |
| 20260904081514 | 44 | 82 | 0.0 | 0.0 | 0.00 | 0.01 | 0.00 | 96 | 1009.6 |
| 20260904080012 | 44 | 82 | 0.0 | 0.0 | 0.00 | 0.01 | 0.00 | 96 | 1009.7 |
| 20260904074510 | 44 | 82 | 0.0 | 0.0 | 0.00 | 0.01 | 0.00 | 95 | 1009.6 |
| 20260904073010 | 44 | 82 | 0.0 | 0.0 | 0.00 | 0.01 | 0.00 | 95 | 1009.5 |
| 20260904071508 | 44 | 82 | 0.0 | 0.0 | 0.00 | 0.01 | 0.00 | 95 | 1009.5 |
| 20260904070006 | 44 | 82 | 0.0 | 0.0 | 0.00 | 0.01 | 0.00 | 95 | 1009.4 |
| 20260904064507 | 44 | 82 | 0.0 | 0.0 | 0.00 | 0.01 | 0.01 | 94 | 1009.6 |
| 20260904063013 | 44 | 82 | 0.0 | 0.0 | 0.00 | 0.01 | 0.01 | 94 | 1009.6 |
| 20260904061508 | 44 | 82 | 0.0 | 0.0 | 0.00 | 0.01 | 0.01 | 93 | 1009.5 |
| 20260904060004 | 44 | 82 | 0.0 | 0.0 | 0.00 | 0.01 | 0.01 | 93 | 1009.4 |
| 20260904054504 | 45 | 82 | 0.0 | 0.0 | 0.00 | 0.01 | 0.01 | 92 | 1009.4 |
| 20260904053002 | 46 | 82 | 0.0 | 0.0 | 0.00 | 0.01 | 0.01 | 93 | 1009.4 |
| 20260904051501 | 46 | 82 | 0.0 | 0.0 | 0.00 | 0.01 | 0.01 | 92 | 1009.3 |
| 20260904050001 | 47 | 82 | 0.0 | 0.0 | 0.00 | 0.01 | 0.01 | 91 | 1009.3 |
| 20260904044622 | 48 | 82 | 0.0 | 0.0 | 0.00 | 0.01 | 0.01 | 90 | 1009.3 |
| 20260904043104 | 49 | 82 | 0.0 | 0.0 | 0.00 | 0.01 | 0.01 | 91 | 1009.1 |
| 20260904041606 | 49 | 82 | 0.0 | 0.0 | 0.00 | 0.01 | 0.01 | 92 | 1009.1 |
| 20260904040057 | 50 | 82 | 0.0 | 0.0 | 0.00 | 0.01 | 0.01 | 91 | 1009.0 |
| 20260904034557 | 50 | 82 | 0.0 | 0.0 | 0.00 | 0.01 | 0.01 | 92 | 1009.0 |
| 20260904033100 | 51 | 82 | 0.0 | 0.0 | 0.00 | 0.01 | 0.01 | 91 | 1008.9 |
| 20260904031604 | 51 | 82 | 0.0 | 0.0 | 0.00 | 0.01 | 0.01 | 90 | 1008.7 |
| 20260904030053 | 52 | 82 | 0.0 | 0.0 | 0.00 | 0.01 | 0.01 | 89 | 1008.6 |
| 20260904024552 | 53 | 82 | 0.0 | 0.0 | 0.00 | 0.02 | 0.01 | 89 | 1008.5 |
| 20260904023053 | 53 | 82 | 0.0 | 0.0 | 0.00 | 0.02 | 0.01 | 89 | 1008.5 |
| 20260904021553 | 54 | 82 | 0.0 | 0.0 | 0.00 | 0.02 | 0.01 | 88 | 1008.6 |
| 20260904020050 | 54 | 82 | 0.0 | 0.0 | 0.00 | 0.02 | 0.01 | 86 | 1008.5 |
| 20260904014549 | 54 | 82 | 0.0 | 1.0 | 0.00 | 0.02 | 0.01 | 85 | 1008.5 |
| 20260904013047 | 54 | 80 | 0.0 | 0.0 | 0.00 | 0.02 | 0.01 | 82 | 1008.3 |
| 20260904011545 | 54 | 80 | 0.0 | 0.0 | 0.00 | 0.02 | 0.01 | 84 | 1007.8 |
| 20260904010045 | 54 | 80 | 0.0 | 0.0 | 0.00 | 0.02 | 0.01 | 83 | 1007.7 |
| 20260904004546 | 54 | 80 | 0.0 | 0.0 | 0.00 | 0.02 | 0.01 | 84 | 1007.5 |
| 20260904003044 | 55 | 80 | 0.0 | 0.0 | 0.00 | 0.02 | 0.01 | 85 | 1007.6 |
| 20260904001544 | 55 | 80 | 0.0 | 0.0 | 0.00 | 0.02 | 0.01 | 81 | 1007.5 |
| 20260904000043 | 55 | 80 | 0.0 | 0.0 | 0.00 | 0.02 | 0.01 | 82 | 1007.3 |
| 20260903234543 | 55 | 80 | 0.0 | 3.0 | 0.01 | 0.02 | 0.01 | 86 | 1007.1 |
| 20260903233046 | 56 | 174 | 0.0 | 0.0 | 0.01 | 0.02 | 0.01 | 83 | 1006.7 |
| 20260903231542 | 57 | 174 | 0.0 | 1.0 | 0.01 | 0.02 | 0.01 | 79 | 1006.6 |
| 20260903230047 | 60 | 174 | 0.0 | 0.0 | 0.01 | 0.02 | 0.01 | 73 | 1006.6 |
| 20260903224545 | 64 | 211 | 0.0 | 2.0 | 0.00 | 0.01 | 0.00 | 55 | 1006.5 |
| 20260903223041 | 65 | 208 | 0.0 | 7.0 | 0.00 | 0.01 | 0.00 | 48 | 1006.4 |
| 20260903221543 | 65 | 213 | 0.0 | 3.0 | 0.00 | 0.01 | 0.00 | 44 | 1006.2 |
| 20260903220027 | 64 | 219 | 0.0 | 1.0 | 0.00 | 0.01 | 0.00 | 46 | 1006.3 |
| 20260903214526 | 65 | 259 | 0.0 | 2.0 | 0.00 | 0.01 | 0.00 | 45 | 1006.4 |
| 20260903213027 | 66 | 360 | 0.0 | 2.0 | 0.00 | 0.01 | 0.00 | 43 | 1006.4 |
| 20260903211506 | 67 | 41 | 0.0 | 3.0 | 0.00 | 0.01 | 0.00 | 42 | 1006.4 |